Change the Weather History Date:

Sunday, December 9, 2012

  Actual Average Record
Temperature  
Mean Temperature 76 °F -  
Max Temperature 82 °F 77 °F 85 °F (1948)
Min Temperature 71 °F 68 °F 57 °F (2010)
Cooling Degree Days 12    
Growing Degree Days 26 (Base 50)    
Moisture  
Dew Point 72 °F    
Average Humidity 89    
Maximum Humidity 94    
Minimum Humidity 74    
Precipitation  
Precipitation 0.01 in - - ()
Sea Level Pressure  
Sea Level Pressure 30.02 in    
Wind  
Wind Speed 4 mph (NE)    
Max Wind Speed 8 mph    
Max Gust Speed -    
Visibility 7 miles    
Events Fog    
Averages and records for this station are not official NWS values.
T = Trace of Precipitation, MM = Missing Value Source: NWS Daily Summary

Daily Weather History Graph

Daily Weather History Graph

Search for Another Location

Airport or City:

Trip Planner

Search our weather history database for the weather conditions in past years. The results will help you decide how hot, cold, wet, or windy it might be!

Date:

Astronomy

Dec. 09, 2012 Rise Set
Actual Time 6:59 AM EST 5:38 PM EST
Civil Twilight 6:34 AM EST 6:03 PM EST
Nautical Twilight 6:06 AM EST 6:32 PM EST
Astronomical Twilight 5:38 AM EST 6:59 PM EST
Moon 2:50 AM EST (12/9) 2:28 PM EST (12/9)
Length of Visible Light 11h 28m
Length of Day
10h 39m
Waning Crescent, 19% of the Moon is Illuminated
Dec 9
Waning Crescent
Dec 13
New
Dec 20
First Quarter
Dec 28
Full
Jan 4
Last Quarter

Hourly Weather History & Observations

Time (EST) Temp. Heat Index Dew Point Humidity Pressure Visibility Wind Dir Wind Speed Gust Speed Precip Events Conditions
12:53 AM 72.0 °F - 70.0 °F 93% 30.01 in 9.0 mi Calm Calm - N/A   Partly Cloudy
1:11 AM 71.6 °F - 69.8 °F 94% 30.01 in 1.5 mi Calm Calm - N/A   Scattered Clouds
1:30 AM 71.6 °F - 69.8 °F 94% 30.01 in 3.0 mi NNE 3.5 mph - N/A   Partly Cloudy
1:53 AM 73.0 °F - 71.1 °F 93% 30.00 in 9.0 mi North 3.5 mph - N/A   Mostly Cloudy
2:53 AM 73.0 °F - 71.1 °F 93% 29.99 in 8.0 mi Calm Calm - 0.01 in   Partly Cloudy
3:53 AM 73.0 °F - 71.1 °F 93% 29.99 in 7.0 mi NNE 3.5 mph - N/A   Clear
4:53 AM 72.0 °F - 70.0 °F 93% 30.00 in 9.0 mi NNE 4.6 mph - N/A   Clear
5:18 AM 73.4 °F - 71.6 °F 94% 30.01 in 10.0 mi NNE 4.6 mph - N/A   Scattered Clouds
5:28 AM 73.4 °F - 71.6 °F 94% 30.01 in 10.0 mi NNE 4.6 mph - N/A   Mostly Cloudy
5:53 AM 73.0 °F - 71.1 °F 93% 30.02 in 10.0 mi North 5.8 mph - N/A   Mostly Cloudy
6:08 AM 73.4 °F - 71.6 °F 94% 30.02 in 10.0 mi NE 5.8 mph - N/A   Mostly Cloudy
6:36 AM 73.4 °F - 71.6 °F 94% 30.03 in 0.5 mi NE 5.8 mph - N/A Fog Fog
6:53 AM 73.0 °F - 71.1 °F 93% 30.03 in 0.5 mi NE 4.6 mph - N/A Fog Fog
6:57 AM 73.4 °F - 71.6 °F 94% 30.04 in 0.2 mi NE 5.8 mph - N/A Fog Fog
7:07 AM 73.4 °F - 71.6 °F 94% 30.04 in 0.2 mi NNE 5.8 mph - N/A Fog Fog
7:53 AM 73.0 °F - 71.1 °F 93% 30.05 in 0.2 mi NE 4.6 mph - N/A Fog Fog
8:53 AM 73.9 °F - 72.0 °F 93% 30.06 in 0.2 mi NE 4.6 mph - N/A Fog Fog
9:06 AM 75.2 °F - 73.4 °F 94% 30.07 in 0.8 mi ENE 3.5 mph - N/A   Mist
9:15 AM 75.2 °F - 73.4 °F 94% 30.07 in 7.0 mi Calm Calm - N/A   Mostly Cloudy
9:53 AM 79.0 °F - 73.9 °F 84% 30.08 in 10.0 mi ENE 3.5 mph - N/A   Mostly Cloudy
10:53 AM 82.0 °F 87.4 °F 73.0 °F 74% 30.07 in 10.0 mi Variable 4.6 mph - N/A   Mostly Cloudy
11:53 AM 80.1 °F 84.2 °F 73.0 °F 79% 30.05 in 10.0 mi NE 5.8 mph - N/A   Mostly Cloudy
12:53 PM 81.0 °F 85.8 °F 73.0 °F 77% 30.02 in 10.0 mi NNE 6.9 mph - N/A   Mostly Cloudy
1:53 PM 80.1 °F 84.2 °F 73.0 °F 79% 30.00 in 10.0 mi North 8.1 mph - N/A   Mostly Cloudy
2:53 PM 81.0 °F 85.8 °F 73.0 °F 77% 29.99 in 10.0 mi NNE 5.8 mph - N/A   Mostly Cloudy
3:53 PM 79.0 °F - 73.0 °F 82% 29.99 in 10.0 mi North 8.1 mph - N/A   Mostly Cloudy
4:53 PM 79.0 °F - 73.9 °F 84% 29.99 in 10.0 mi NNE 4.6 mph - N/A   Mostly Cloudy
5:53 PM 78.1 °F - 73.0 °F 84% 30.00 in 10.0 mi East 8.1 mph - N/A   Partly Cloudy
6:53 PM 77.0 °F - 73.9 °F 90% 30.01 in 10.0 mi East 6.9 mph - N/A   Partly Cloudy
7:53 PM 77.0 °F - 73.9 °F 90% 30.02 in 10.0 mi ENE 3.5 mph - N/A   Partly Cloudy
8:53 PM 77.0 °F - 73.0 °F 88% 30.02 in 10.0 mi ENE 6.9 mph - N/A   Partly Cloudy
9:53 PM 77.0 °F - 73.9 °F 90% 30.03 in 10.0 mi East 4.6 mph - N/A   Mostly Cloudy
10:53 PM 77.0 °F - 73.9 °F 90% 30.03 in 10.0 mi East 6.9 mph - N/A   Scattered Clouds
11:53 PM 77.0 °F - 73.9 °F 90% 30.02 in 10.0 mi East 6.9 mph - N/A   Mostly Cloudy